Other Surface Observations
Issued by NWS

Home | Current Version | Previous Version | Text Only | Print | Product List | Glossary On
Versions: 1 2 3 4 5 6 7 8 9 10 11 12 13 14 15 16 17 18 19 20 21 22 23 24 25 26 27 28 29 30 31 32 33 34 35 36 37 38 39 40 41 42 43 44 45 46 47 48 49 50
000
SXUS52 KTAE 261718
OSOTAE
North Florida/South Alabama/Southwest Georgia Weather Roundup
National Weather Service Tallahassee Florida
1200 PM EST WED NOV 26 2014

Note: "fair" indicates few or no clouds below 12,000 feet with no
significant weather and/or obstructions to visibility.

!FLZ017-115-028-034-025-261800
...North Florida...

CITY           SKY/WX    TMP DP  RH WIND       PRES   REMARKS
TALLAHASSEE    MOSUNNY   59  32  36 NW12      30.18F
APALACHICOLA   SUNNY     62  34  35 N15       30.21R
PERRY          SUNNY     58  42  54 NW10      30.17F
CROSS CITY       N/A     59  46  62 NW6       30.16S
JACKSONVILLE   CLOUDY    54  48  80 NW9G18    30.11S
$$

!FLZ112-006-005-002-011-261800
...Florida Panhandle...

CITY           SKY/WX    TMP DP  RH WIND       PRES   REMARKS
MARIANNA       SUNNY     56  34  43 NW10      30.21S
BONIFAY        FAIR      56  34  43 N8        30.22F
PANAMA CITY NW FAIR      56  35  45 NW8       30.21F
TYNDALL AFB    SUNNY     57  39  51 NW8       30.23S
TYND DRONE APT NOT AVBL
DE FUNIAK SPR  FAIR      55  31  40 N8        30.22F
EGLIN AFB      SUNNY     57  28  33 N12       30.22F
DESTIN         SUNNY     58  32  37 N8        30.22F
HURLBURT       SUNNY     58  23  26 N13       30.21F
CRESTVIEW      SUNNY     56  28  34 N7        30.23F
PENSACOLA      SUNNY     57  26  30 NW8       30.23F
$$

!ALZ063-066-261800
...South Alabama...

CITY           SKY/WX    TMP DP  RH WIND       PRES   REMARKS
DOTHAN         SUNNY     54  30  40 NW10      30.24R
OZARK CAIRNS   SUNNY     55  25  31 NW10G18   30.21S
FT RUCKER HELI SUNNY     56  29  35 VRB3      30.20S
RUCKER HELI 3  FAIR      54  28  37 NW7G15    30.23S
RUCKER HELI 2  FAIR      55  30  38 NW8       30.25S
FLORALA APT    SUNNY     56  28  34 VRB3      30.23F
ANDALUSIA      SUNNY     59  25  27 NW7       30.22F
TROY           SUNNY     56  24  29 NW9       30.21S
EUFALA         FAIR      57  29  34 VRB6      30.18R
MOBILE         SUNNY     57  26  30 W8        30.25F
$$

!GAZ120>161-261800
...Southwest and South Central Georgia...

CITY           SKY/WX    TMP DP  RH WIND       PRES   REMARKS
THOMASVILLE    FAIR      57  36  44 NW13G20   30.18S
BAINBRIDGE     SUNNY     59  37  44 NW9       30.20S
MOODY AFB      SUNNY     56  41  57 NW12G21   30.14S
VALDOSTA       SUNNY     57  43  59 VRB5      30.15S
MOULTRIE       SUNNY     54  39  58 W8        30.17S
BLAKELY        SUNNY     55  34  44 NW7       30.20S
ALBANY         SUNNY     56  33  42 W8G17     30.18F
TIFTON         FAIR      54  39  57 W12       30.14F
FITZGERALD     FAIR      58  38  48 NW10G20   30.15F
CORDELE        FAIR      57  34  42 NW10G16   30.15F
AMERICUS       FAIR      54  32  43 NW12G17   30.16S
HOMERVILLE     FAIR      59  46  63 W14       30.13S
$$

!GMZ750-755-770-775-261800
...Coastal and Buoy Obs...

STATION/POSITION TIME  TEMP    WIND        PRES    VSBY  WAVE
                       AIR SEA DIR/SP/G                  HT/PER
                 (UTC) (F)     (DEG/KT/KT) (MB)    (MI)  (FT/S)
KEATON BEACH     1700   54     290/ 13/ 15 1021.8F
CEDAR KEY        1655   56     310/  8/ 14 1022.0R
C TOWER          1700   54     320/ 15/ 16 1022.8R
APALACHICOLA BUO 1700   59 70  330/ 21/ 25 1022.5R         6/ 6
PANAMA CITY BUOY 1624   62 76  340/ 23/ 29 1023.6R         8/ 7
MOBILE BUOY      1608   58 71  320/ 10/ 12 1026.1R         3/ 5
ORANGE BCH AL BU 1700   53 67  300/  6/  8 1024.0F         1/ 4
$$



USA.gov is the U.S. government's official web portal to all federal, state and local government web resources and services.